This is the latest recevied weather packets stored in our database for station/object 4S6DRJ-13. If no packets are shown the sender has not sent any weather packets the latest 10 day(s).
| Time | Temp. | Humidity | Pressure | Rain* | Wind** | Luminosity | Snow |
|---|---|---|---|---|---|---|---|
| 1787729212 | 30° C | 76% | 1010.1 hPa | 0 mm | 3.58 m/s, 211° | 662 W/m² | - |
| 1787729151 | 29.44° C | 77% | 1010.3 hPa | 0 mm | 2.24 m/s, 208° | 640 W/m² | - |
| 1787729090 | 29.44° C | 77% | 1010.1 hPa | 0 mm | 1.34 m/s, 220° | 528 W/m² | - |
| 1787729029 | 29.44° C | 77% | 1010.5 hPa | 0 mm | 1.34 m/s, 296° | 484 W/m² | - |
| 1787728968 | 29.44° C | 77% | 1010.2 hPa | 0 mm | 0.89 m/s, 276° | 525 W/m² | - |
| 1787728907 | 29.44° C | 77% | 1010.1 hPa | 0 mm | 1.34 m/s, 148° | 458 W/m² | - |
| 1787728847 | 29.44° C | 76% | 1010.3 hPa | 0 mm | 2.24 m/s, 300° | 516 W/m² | - |
| 1787728786 | 29.44° C | 76% | 1010.2 hPa | 0 mm | 1.79 m/s, 250° | 519 W/m² | - |
| 1787728726 | 29.44° C | 75% | 1010.4 hPa | 0 mm | 2.24 m/s, 256° | 589 W/m² | - |
| 1787728664 | 29.44° C | 77% | 1010.4 hPa | 0 mm | 1.79 m/s, 304° | 612 W/m² | - |
| 1787728603 | 29.44° C | 76% | 1010.4 hPa | 0 mm | 1.34 m/s, 274° | 668 W/m² | - |
| 1787728542 | 29.44° C | 76% | 1010.3 hPa | 0 mm | 1.34 m/s, 219° | 523 W/m² | - |
| 1787728481 | 29.44° C | 76% | 1010.3 hPa | 0 mm | 0 m/s | 471 W/m² | - |
| 1787728420 | 29.44° C | 76% | 1010.6 hPa | 0 mm | 2.68 m/s, 63° | 627 W/m² | - |
| 1787728359 | 29.44° C | 76% | 1010.2 hPa | 0 mm | 1.34 m/s, 269° | 551 W/m² | - |
| 1787728298 | 29.44° C | 75% | 1010.3 hPa | 0 mm | 2.68 m/s, 236° | 549 W/m² | - |
| 1787728237 | 29.44° C | 75% | 1010.4 hPa | 0 mm | 2.24 m/s, 312° | 456 W/m² | - |
| 1787728176 | 30° C | 76% | 1010.4 hPa | 0 mm | 1.34 m/s, 259° | 423 W/m² | - |
| 1787728115 | 30° C | 75% | 1010.3 hPa | 0 mm | 1.79 m/s, 286° | 498 W/m² | - |
| 1787728054 | 30° C | 75% | 1010.3 hPa | 0 mm | 2.68 m/s, 218° | 446 W/m² | - |
| 1787727993 | 29.44° C | 75% | 1010.2 hPa | 0 mm | 1.34 m/s, 240° | 457 W/m² | - |
| 1787727932 | 29.44° C | 75% | 1010.2 hPa | 0 mm | 1.79 m/s, 242° | 407 W/m² | - |
| 1787727871 | 30° C | 74% | 1010.2 hPa | 0 mm | 0.89 m/s, 312° | 433 W/m² | - |
| 1787727810 | 30° C | 74% | 1010.3 hPa | 0 mm | 1.34 m/s, 199° | 572 W/m² | - |
| 1787727749 | 30° C | 75% | 1010.5 hPa | 0 mm | 2.68 m/s, 225° | 591 W/m² | - |
* Rain latest hour (hover to see other rain measurements)
** Current wind speed in m/s (hover to see current wind gust speed)